Location: Staunton
(38.1490°N, 79.0720°W)
Time: 14:47:46
(UTC-04:00)

ISS - Pass Details

Date: 21 July 2017
Orbit: 400 x 408 km, 51.6° (Epoch: 21 July)

Event Time Altitude Azimuth Distance (km) Brightness Sun altitude
Rises 03:47:52 0° 320° (NW) 2,314 0.2 -22.3°
Reaches altitude 10° 03:51:10 10° 356° (N) 1,455 -0.4 -21.9°
Maximum altitude 03:52:20 11° 17° (NNE) 1,370 -0.2 -21.7°
Drops below altitude 10° 03:53:30 10° 38° (NE) 1,455 0.1 -21.6°
Sets 03:56:47 0° 74° (ENE) 2,314 0.9 -21.2°
